This demonstration page uses our WeatherBlox Daily Observations layout. Learn more.

Left ArrowRight Arrow

34.16533, -84.80231

Hourly Observations for March 27, 2022

Temp ( °F °C ) Dew Point ( °F °C ) Humidity (%) Winds ( mph kmh ) Pressure ( in mb ) Visibility ( mi km ) Precip ( " mm )
12:15 am 00:15 Clear 50 10 18 -8 28 28 W 7 11 30.02 1017 10 16 0.00 0.00
12:35 am 00:35 Clear 50 10 18 -8 28 28 W 7 11 30.02 1017 10 16 0.00 0.00
12:55 am 00:55 Clear 50 10 16 -9 25 25 W 5 7 30.02 1017 10 16 0.00 0.00
1:15 am 01:15 Clear 48 9 16 -9 27 27 SW 6 9 30.01 1016 10 16 0.00 0.00
1:35 am 01:35 Clear 48 9 18 -8 29 29 SW 5 7 30.01 1016 10 16 0.00 0.00
1:55 am 01:55 Clear 45 7 19 -7 37 37 SW 3 6 30.02 1017 10 16 0.00 0.00
2:15 am 02:15 Clear 43 6 21 -6 42 42 WSW 3 6 30.02 1017 10 16 0.00 0.00
2:35 am 02:35 Clear 45 7 19 -7 37 37 WSW 6 9 30.02 1017 10 16 0.00 0.00
2:55 am 02:55 Clear 45 7 19 -7 37 37 WSW 5 7 30.02 1017 10 16 0.00 0.00
3:15 am 03:15 Clear 45 7 19 -7 37 37 W 6 9 30.02 1017 10 16 0.00 0.00
3:35 am 03:35 Clear 43 6 19 -7 39 39 Calm 30.02 1017 10 16 0.00 0.00
3:55 am 03:55 Clear 45 7 18 -8 34 34 Calm 30.03 1017 10 16 0.00 0.00
4:15 am 04:15 Clear 43 6 19 -7 39 39 VRB 5 7 30.02 1017 10 16 0.00 0.00
4:35 am 04:35 Clear 45 7 18 -8 34 34 Calm 30.02 1017 10 16 0.00 0.00
4:55 am 04:55 Clear 45 7 19 -7 37 37 VRB 5 7 30.03 1017 10 16 0.00 0.00
5:15 am 05:15 Clear 43 6 19 -7 39 39 W 3 6 30.03 1017 10 16 0.00 0.00
5:35 am 05:35 Clear 41 5 21 -6 45 45 W 5 7 30.05 1018 10 16 0.00 0.00
5:55 am 05:55 Clear 41 5 21 -6 45 45 Calm 30.06 1018 10 16 0.00 0.00
6:15 am 06:15 Clear 39 4 21 -6 48 48 Calm 30.07 1018 10 16 0.00 0.00
6:35 am 06:35 Clear 41 5 19 -7 42 42 W 5 7 30.07 1018 10 16 0.00 0.00
6:55 am 06:55 Clear 41 5 21 -6 45 45 Calm 30.07 1018 10 16 0.00 0.00
7:15 am 07:15 Clear 41 5 19 -7 42 42 VRB 3 6 30.08 1019 10 16 0.00 0.00
7:35 am 07:35 Sunny 39 4 19 -7 45 45 WSW 3 6 30.10 1019 10 16 0.00 0.00
7:55 am 07:55 Sunny 39 4 21 -6 48 48 Calm 30.10 1019 10 16 0.00 0.00
8:15 am 08:15 Sunny 39 4 23 -5 52 52 VRB 6 9 30.12 1020 9 14 0.00 0.00
8:35 am 08:35 Sunny 43 6 19 -7 39 39 VRB 7 11 30.11 1020 10 16 0.00 0.00
8:55 am 08:55 Sunny 43 6 18 -8 36 36 W 8 13 30.12 1020 10 16 0.00 0.00
9:15 am 09:15 Sunny 45 7 19 -7 37 37 VRB 3 6 30.11 1020 10 16 0.00 0.00
9:35 am 09:35 Sunny 45 7 18 -8 34 34 NNW 8 13 30.12 1020 10 16 0.00 0.00
9:55 am 09:55 Sunny 46 8 18 -8 32 32 WNW 8 13 30.13 1020 10 16 0.00 0.00
10:15 am 10:15 Sunny 46 8 16 -9 29 29 NNW 9 15 30.14 1020 10 16 0.00 0.00
10:35 am 10:35 Sunny 46 8 16 -9 29 29 VRB 7 11 30.14 1020 10 16 0.00 0.00
10:55 am 10:55 Sunny 48 9 18 -8 29 29 VRB 6 9 30.14 1021 10 16 0.00 0.00
11:15 am 11:15 Sunny 50 10 19 -7 30 30 VRB 7 11 30.14 1021 10 16 0.00 0.00
11:35 am 11:35 Sunny 50 10 16 -9 25 25 W 15 24 30.13 1020 10 16 0.00 0.00
11:55 am 11:55 Sunny 52 11 16 -9 24 24 WNW 14 22 30.13 1020 10 16 0.00 0.00
12:15 pm 12:15 Sunny 52 11 16 -9 24 24 NW 8 13 30.14 1021 10 16 0.00 0.00
12:35 pm 12:35 Sunny 54 12 18 -8 24 24 WNW 10 17 30.12 1020 10 16 0.00 0.00
12:55 pm 12:55 Sunny 54 12 18 -8 24 24 NNW 9 15 30.12 1020 10 16 0.00 0.00
1:15 pm 13:15 Sunny 55 13 18 -8 23 23 W 9 15 30.11 1020 10 16 0.00 0.00
1:35 pm 13:35 Sunny 55 13 18 -8 23 23 W 10 17 30.11 1020 10 16 0.00 0.00
1:55 pm 13:55 Sunny 57 14 18 -8 21 21 NNW 8 13 30.10 1019 10 16 0.00 0.00
2:15 pm 14:15 Sunny 57 14 18 -8 21 21 NW 8 13 30.10 1019 10 16 0.00 0.00
2:35 pm 14:35 Sunny 59 15 18 -8 20 20 W 10 17 30.08 1018 10 16 0.00 0.00
2:55 pm 14:55 Sunny 59 15 18 -8 20 20 WNW 10 17 30.07 1018 10 16 0.00 0.00
3:15 pm 15:15 Sunny 59 15 16 -9 18 18 WNW 12 19 30.06 1018 10 16 0.00 0.00
3:35 pm 15:35 Sunny 61 16 18 -8 19 19 NW 9 15 30.05 1018 10 16 0.00 0.00
3:55 pm 15:55 Sunny 61 16 19 -7 20 20 WNW 8 13 30.04 1017 10 16 0.00 0.00
4:15 pm 16:15 Sunny 61 16 19 -7 20 20 W 12 19 30.04 1017 10 16 0.00 0.00
4:35 pm 16:35 Sunny 63 17 19 -7 19 19 W 14 22 30.03 1017 10 16 0.00 0.00
4:55 pm 16:55 Sunny 63 17 19 -7 19 19 W 15 24 30.03 1017 10 16 0.00 0.00
5:15 pm 17:15 Sunny 63 17 19 -7 19 19 W 17 28 30.03 1017 10 16 0.00 0.00
5:35 pm 17:35 Sunny 63 17 19 -7 19 19 WNW 16 26 30.03 1017 10 16 0.00 0.00
5:55 pm 17:55 Sunny 61 16 19 -7 20 20 WNW 9 15 30.03 1017 10 16 0.00 0.00
6:15 pm 18:15 Sunny 61 16 21 -6 22 22 W 9 15 30.04 1017 10 16 0.00 0.00
6:35 pm 18:35 Sunny 61 16 21 -6 22 22 WNW 8 13 30.04 1017 10 16 0.00 0.00
6:55 pm 18:55 Sunny 59 15 21 -6 23 23 W 10 17 30.04 1017 10 16 0.00 0.00
7:15 pm 19:15 Mostly Sunny 59 15 23 -5 25 25 W 6 9 30.05 1017 10 16 0.00 0.00
7:35 pm 19:35 Mostly Sunny 59 15 23 -5 25 25 W 9 15 30.06 1018 10 16 0.00 0.00
7:55 pm 19:55 Mostly Cloudy 59 15 23 -5 25 25 W 8 13 30.07 1018 10 16 0.00 0.00
8:15 pm 20:15 Cloudy 57 14 25 -4 29 29 W 7 11 30.07 1018 10 16 0.00 0.00
8:35 pm 20:35 Cloudy 57 14 27 -3 31 31 WSW 8 13 30.07 1018 10 16 0.00 0.00
8:55 pm 20:55 Mostly Cloudy 55 13 27 -3 33 33 W 8 13 30.07 1018 10 16 0.00 0.00
9:15 pm 21:15 Mostly Cloudy 55 13 28 -2 36 36 W 6 9 30.08 1019 10 16 0.00 0.00
9:35 pm 21:35 Cloudy 54 12 28 -2 38 38 W 5 7 30.09 1019 10 16 0.00 0.00
9:55 pm 21:55 Mostly Cloudy 54 12 28 -2 38 38 W 6 9 30.10 1019 10 16 0.00 0.00
10:15 pm 22:15 Partly Cloudy 52 11 30 -1 44 44 Calm 30.11 1020 10 16 0.00 0.00
10:35 pm 22:35 Mostly Clear 54 12 21 -6 28 28 VRB 3 6 30.11 1020 10 16 0.00 0.00
10:55 pm 22:55 Partly Cloudy 52 11 19 -7 28 28 VRB 5 7 30.11 1020 10 16 0.00 0.00
11:15 pm 23:15 Clear 50 10 21 -6 32 32 W 6 9 30.11 1020 10 16 0.00 0.00
11:35 pm 23:35 Mostly Clear 50 10 19 -7 30 30 WNW 5 7 30.12 1020 10 16 0.00 0.00
11:55 pm 23:55 Mostly Clear 50 10 19 -7 30 30 W 6 9 30.12 1020 10 16 0.00 0.00

Powered by AerisWeather